Retour au catalogue

STARLINK-35349

ActifCommunicationsVLEO
NORAD 65835·PAYLOAD·🇺🇸 United States

Lancé Sep 29, 2025 depuis Vandenberg Space Force Base

Loading…

Prochains Passages (prochaines 24 heures)

TLE

FraisSource: CelesTrak SupGP

Époque: Sep 14, 2026, 20:44 UTC

1 65835C 25221N   26257.86437500  .00018305  00000+0  54112-3 0  2573
2 65835  53.1576 287.8571 0001160  86.1169 221.9883 15.34364776    13

Suivez STARLINK-35349 en temps réel avec AllMySat

Download on the App Store